Flag for Spain Weather past 2 weeks in Barcelona, Barcelona, Spain

70 °F

Passing clouds.

Feels Like: 70 °F
Forecast: 63 / 80 °F
Wind: 7 mph from Southwest

Location: Barcelona Airport

Current Time: Oct 4, 2015 at 8:07:59 PM

Latest Report: Oct 4, 2015 at 7:30 PM

Visibility: N/A

Pressure: 30.04 "Hg

Humidity: 78%

Dew point: 63 °F

Location of BarcelonaLocation

Historic Weather in Barcelona — Graph


Barcelona temperature yesterday

Maximum temperature yesterday: 73 °F (at 1:30 PM)
Minimum temperature yesterday: 61 °F (at 6:30 AM)
Average temperature yesterday: 67 °F

Past Weeks' High & Low Weather Summary

High77 °F (Sep 22, 12:00 PM)100% (Oct 3, 7:00 AM)30.21 "Hg (Oct 3, 7:00 AM)
Low59 °F (Sep 25, 7:00 AM)49% (Sep 24, 11:00 AM)29.83 "Hg (Sep 22, 5:00 PM)
Average68 °F74%30.06 "Hg
* Reported Sep 19 6:00 PM — Oct 4 6:30 PM, Barcelona, Weather by CustomWeather, © 2015

Note: Actual official high and low records may vary slightly from our data, if they occured in-between our weather recording intervals... More about our weather records


Barcelona weather history for previous 24 hours

Time TempWeatherWind HumidityBarometerVisibility
6:30 PM
Sun, Oct 4
70 °FPassing clouds.5 mph78%30.04 "HgN/A
6:00 PM70 °FPassing clouds.6 mph73%30.04 "HgN/A
5:30 PM70 °FPassing clouds.6 mph73%30.04 "HgN/A
5:00 PM70 °FPassing clouds.6 mph73%30.04 "HgN/A
4:30 PM70 °FPassing clouds.5 mph73%30.04 "HgN/A
4:00 PM70 °FPassing clouds.6 mph69%30.04 "HgN/A
3:30 PM70 °FScattered clouds.5 mph69%30.07 "HgN/A
2:30 PM70 °FScattered clouds.3 mph64%30.09 "HgN/A
2:00 PM72 °FScattered clouds.5 mph61%30.09 "HgN/A
1:30 PM70 °FScattered clouds.1 mph60%30.09 "HgN/A
1:00 PM70 °FScattered clouds.3 mph64%30.09 "HgN/A
12:30 PM68 °FScattered clouds.3 mph64%30.12 "HgN/A
12:00 PM68 °FScattered clouds.3 mph64%30.09 "HgN/A
11:30 AM68 °FScattered clouds.3 mph64%30.12 "HgN/A
11:00 AM66 °FScattered clouds.7 mph68%30.12 "HgN/A
10:30 AM64 °FScattered clouds.5 mph73%30.12 "HgN/A
10:00 AM64 °FScattered clouds.7 mph73%30.12 "HgN/A
9:30 AM63 °FPartly sunny.6 mph77%30.12 "HgN/A
9:00 AM63 °FPartly sunny.5 mph77%30.09 "HgN/A
8:30 AM61 °FPassing clouds.5 mph83%30.09 "HgN/A
8:00 AM61 °FPassing clouds.8 mph83%30.09 "HgN/A
7:30 AM61 °FPassing clouds.5 mph83%30.09 "HgN/A
7:00 AM61 °FPassing clouds.8 mph83%30.09 "HgN/A
6:30 AM61 °FPassing clouds.9 mph83%30.09 "HgN/A
6:00 AM61 °FPassing clouds.8 mph83%30.09 "HgN/A
5:30 AM61 °FPassing clouds.8 mph83%30.09 "HgN/A
5:00 AM61 °FPassing clouds.9 mph83%30.09 "HgN/A
4:30 AM61 °FPassing clouds.10 mph83%30.09 "HgN/A
4:00 AM61 °FPassing clouds.10 mph83%30.09 "HgN/A
3:30 AM63 °FPassing clouds.8 mph83%30.09 "HgN/A
3:00 AM66 °FPassing clouds.12 mph83%30.09 "HgN/A
2:30 AM64 °FPassing clouds.13 mph88%30.07 "HgN/A
2:00 AM63 °FPassing clouds.7 mph77%30.07 "HgN/A
1:30 AM63 °FPassing clouds.9 mph77%30.07 "HgN/A
1:00 AM63 °FPassing clouds.8 mph77%30.07 "HgN/A
12:30 AM63 °FPassing clouds.5 mph77%30.04 "HgN/A
11:30 PM
Sat, Oct 3
64 °FPassing clouds.8 mph83%30.04 "HgN/A
11:00 PM64 °FPassing clouds.6 mph88%30.04 "HgN/A
10:30 PM64 °FPassing clouds.3 mph88%30.04 "HgN/A
10:00 PM68 °FPassing clouds.3 mph78%30.04 "HgN/A
9:30 PM68 °FPassing clouds.3 mph78%30.01 "HgN/A
9:00 PM70 °FPassing clouds.5 mph73%30.01 "HgN/A
8:30 PM70 °FPassing clouds.2 mph73%30.01 "HgN/A
8:00 PM70 °FPartly sunny.2 mph73%30.01 "HgN/A
Weather by CustomWeather, © 2015

See weather overviewHow to use our weather pages